TimeEST,TemperatureF,Dew PointF,Humidity,Sea Level PressureIn,VisibilityMPH,Wind Direction,Wind SpeedMPH,Gust SpeedMPH,PrecipitationIn,Events,Conditions,WindDirDegrees,DateUTC
12:54 AM,26.1,21.9,84,30.22,10.0,Calm,Calm,-,N/A,,Clear,0,2012-12-15 05:54:00
1:54 AM,25.0,21.9,88,30.24,8.0,SSW,3.5,-,N/A,,Clear,210,2012-12-15 06:54:00
2:54 AM,24.1,21.9,91,30.26,7.0,Calm,Calm,-,N/A,,Clear,0,2012-12-15 07:54:00
3:54 AM,25.0,21.0,85,30.26,6.0,Calm,Calm,-,N/A,,Clear,0,2012-12-15 08:54:00
4:54 AM,24.1,21.0,88,30.26,7.0,Calm,Calm,-,N/A,,Clear,0,2012-12-15 09:54:00
5:54 AM,23.0,21.0,92,30.27,4.0,Calm,Calm,-,N/A,,Clear,0,2012-12-15 10:54:00
6:54 AM,23.0,19.9,88,30.28,6.0,Calm,Calm,-,N/A,,Clear,0,2012-12-15 11:54:00
7:54 AM,21.9,19.0,89,30.30,5.0,Calm,Calm,-,N/A,,Clear,0,2012-12-15 12:54:00
8:54 AM,28.9,27.0,92,30.31,5.0,Calm,Calm,-,N/A,,Clear,0,2012-12-15 13:54:00
9:54 AM,37.0,30.0,76,30.32,8.0,SSW,3.5,-,N/A,,Clear,210,2012-12-15 14:54:00
10:54 AM,42.1,28.9,60,30.32,10.0,Calm,Calm,-,N/A,,Clear,0,2012-12-15 15:54:00
11:54 AM,44.1,28.9,55,30.28,10.0,Calm,Calm,-,N/A,,Clear,0,2012-12-15 16:54:00
12:54 PM,45.0,28.9,53,30.27,10.0,Calm,Calm,-,N/A,,Clear,0,2012-12-15 17:54:00
1:54 PM,45.0,28.9,53,30.25,10.0,Calm,Calm,-,N/A,,Clear,0,2012-12-15 18:54:00
2:54 PM,44.1,28.9,55,30.24,10.0,Calm,Calm,-,N/A,,Clear,0,2012-12-15 19:54:00
3:54 PM,42.1,28.9,60,30.23,10.0,NE,3.5,-,N/A,,Clear,50,2012-12-15 20:54:00
5:54 PM,34.0,28.0,79,30.24,10.0,Calm,Calm,-,N/A,,Clear,0,2012-12-15 22:54:00
6:54 PM,32.0,28.0,85,30.25,10.0,NNE,3.5,-,N/A,,Clear,20,2012-12-15 23:54:00
7:54 PM,35.1,28.0,76,30.25,10.0,NNE,4.6,-,N/A,,Clear,30,2012-12-16 00:54:00
8:54 PM,35.1,27.0,72,30.25,10.0,NNE,5.8,-,N/A,,Clear,30,2012-12-16 01:54:00
9:54 PM,35.1,26.1,70,30.25,10.0,North,4.6,-,N/A,,Overcast,360,2012-12-16 02:54:00
10:54 PM,34.0,25.0,70,30.22,10.0,NE,4.6,-,N/A,,Overcast,50,2012-12-16 03:54:00
11:54 PM,34.0,25.0,70,30.22,10.0,NNE,6.9,-,N/A,,Overcast,20,2012-12-16 04:54:00